This is the latest recevied weather packets stored in our database for station/object CT1ETE. If no packets are shown the sender has not sent any weather packets the latest 10 day(s).
| Time | Temp. | Humidity | Pressure | Rain* | Wind** | Luminosity | Snow |
|---|---|---|---|---|---|---|---|
| 1777471012 | 16.11° C | 85% | 1007.4 hPa | 2.29 mm | - | - | - |
| 1777466566 | 16.67° C | 84% | 1007.2 hPa | 0 mm | - | - | - |
| 1777460257 | 14.44° C | 63% | 1007.4 hPa | 5.08 mm | - | - | - |
| 1777457476 | 14.44° C | 67% | 1007.4 hPa | 11.94 mm | - | - | - |
| 1777452146 | 15° C | 78% | 1006.9 hPa | 0.25 mm | - | - | - |
| 1777450346 | 15° C | 80% | 1007 hPa | 0 mm | - | - | - |
| 1777441340 | 15° C | 83% | 1005.9 hPa | 0 mm | - | - | - |
| 1777438640 | 16.11° C | 77% | 1005.6 hPa | 0 mm | - | - | - |
| 1777434558 | 16.67° C | 75% | 1006.2 hPa | 0 mm | - | - | - |
| 1777433235 | 16.67° C | 74% | 1006.3 hPa | 0 mm | - | - | - |
| 1777425125 | 16.67° C | 71% | 1007.2 hPa | 0 mm | - | - | - |
| 1777418815 | 16.67° C | 73% | 1007.5 hPa | 0 mm | - | - | - |
| 1777402603 | 20° C | 56% | 1007.6 hPa | 0 mm | - | - | - |
| 1777400803 | 21.11° C | 54% | 1007.7 hPa | 0 mm | - | - | - |
| 1777398103 | 21.67° C | 49% | 1007.9 hPa | 0 mm | - | - | - |
| 1777395402 | 21.11° C | 52% | 1007.8 hPa | 0 mm | - | - | - |
| 1777393602 | 20.56° C | 62% | 1008.4 hPa | 0 mm | - | - | - |
| 1777388199 | 21.67° C | 65% | 1008.5 hPa | 0 mm | - | - | - |
| 1777385015 | 24.44° C | 52% | 1008.1 hPa | 0 mm | - | - | - |
| 1777381892 | 25° C | 50% | 1008.4 hPa | 0 mm | - | - | - |
| 1777376482 | 23.89° C | 57% | 1009.5 hPa | 0 mm | - | - | - |
| 1777373299 | 23.33° C | 57% | 1009.8 hPa | 0 mm | - | - | - |
| 1777367480 | 20.56° C | 58% | 1009.8 hPa | 0 mm | - | - | - |
| 1777358898 | 18.89° C | 60% | 1009.5 hPa | 0 mm | - | - | - |
| 1777357521 | 18.89° C | 60% | 1009.4 hPa | 0 mm | - | - | - |
* Rain latest hour (hover to see other rain measurements)
** Current wind speed in m/s (hover to see current wind gust speed)